Location: Eferding
(48.3167°N, 14.0167°E)
Time: 17:11:19
(UTC+00:00)

Cosmos 1980 Rocket - Pass Details

Date: 12 November 2019
Orbit: 828 x 851 km, 71.0° (Epoch: 11 December)

Event Time Altitude Azimuth Distance (km) Brightness Sun altitude
Rises 17:39:43 0° 171° (S) 3,380 5.3 -21.7°
Reaches altitude 10° 17:42:28 10° 160° (SSE) 2,454 4.4 -22.1°
Enters shadow 17:43:07 13° 155° (SSE) 2,255 4.2 -22.2°
